Simultaneous Nadir Overpasses (SNOs) Predictions

Prediction of SNOs between GOES-17 and AQUA Satellite Orbit:

Table of predicted SNOs for the next 14.0 days since TLE Epoch: 12/5/2025
Index Date Time (GOES-17) GOES-17 Lat,Lon AQUA Lat,Lon Distance(km) Time Diff (sec)
1 12/05/2025 09:19:38 0.27, -89.52 1.14, -93.69 473.53 80
2 12/07/2025 08:55:44 0.25, -89.52 0.05, -88.48 117.32 80
3 12/07/2025 21:17:26 -0.29, -89.48 -1.07, -93.08 410.05 80
4 12/09/2025 20:53:31 -0.26, -89.48 0.05, -87.87 182.85 80
5 12/10/2025 09:15:06 0.30, -89.53 0.91, -92.44 330.73 80
6 12/12/2025 08:51:10 0.27, -89.54 -0.24, -87.23 263.27 80
7 12/12/2025 21:12:52 -0.31, -89.50 -0.80, -91.82 263.77 80
8 12/14/2025 20:48:54 -0.29, -89.52 0.32, -86.60 331.99 80
9 12/15/2025 09:10:28 0.33, -89.58 0.67, -91.17 180.51 80
10 12/17/2025 08:46:29 0.31, -89.60 -0.48, -85.94 415.60 80
11 12/17/2025 21:08:10 -0.35, -89.55 -0.57, -90.53 111.47 80
